Atlantic - Newfoundland: Past 24 Hour Conditions

 

Port aux Basques

05:30 AM NST 24 November 2014
This table is a summary of hourly weather conditions for the past 24 hours.
Date / Time
(NST)
Wind(knots) Conditions Visibility(km) Pressure(kPa) Air tempC) Relative humidity(%) Dew pointC) Wind Chill
24 November 2014
5:30 WNW 13 Mostly Cloudy 15 102.5 1 65 -5 *
4:30 WNW 13 Cloudy 15 102.4 1 62 -6 *
3:30 NW 12 Cloudy 15 102.3 1 68 -5 *
2:30 WNW 12 gust 17 Mostly Cloudy 15 102.3 0 68 -5 *
1:30 WNW 9 Clear 15 102.2 -1 75 -5 -6
0:30 NW 7 Clear 15 102.1 -1 73 -5 -5
23 November 2014
23:30 NW 8 Clear 15 102.0 -1 76 -4 -5
22:30 WNW 10 Clear 15 101.9 -1 71 -5 -6
21:30 NW 9 Clear 15 101.9 0 71 -5 -5
20:30 NW 12 gust 17 Clear 15 101.8 0 70 -5 *
19:30 NW 18 gust 27 Clear 15 101.7 1 69 -4 *
18:30 WNW 18 gust 28 Clear 15 101.6 1 67 -4 *
17:30 WNW 22 gust 30 Clear 15 101.5 2 71 -3 *
16:30 NW 21 gust 28 Sunny 15 101.3 2 72 -2 *
15:30 WNW 24 Mostly Cloudy 15 101.1 3 80 0 *
14:30 W 27 gust 32 Mostly Cloudy 15 101.1 4 80 0 *
13:30 WNW 26 Mostly Cloudy 15 101.0 3 76 -1 *
12:30 W 23 gust 30 Partly Cloudy 15 100.9 3 78 0 *
11:30 WNW 27 gust 32 Cloudy 15 100.9 2 79 -1 *
10:30 W 27 Cloudy 15 100.8 2 77 -1 *
9:30 W 21 gust 29 Light Snow 15 100.8 2 81 -1 *
8:30 W 25 Light Snow 10 100.8 1 84 -1 *
7:30 W 23 gust 29 Partly Cloudy 15 100.7 2 76 -2 *
6:30 W 24 Cloudy 15 100.7 2 77 -2 *
5:30 W 22 gust 29 Light Snow 15 100.7 2 75 -2 *
 
Map of Atlantic - Newfoundland marine weather areas Southwestern Grand Banks - 44138 Banquereau - 44139 Tail of the Bank - 44140 Nickerson Bank - 44251 Northeast Burgeo Bank - 44255 Blanc-Sablon Airport Cap Whittle Chevery Natashquan Airport Heath Point Miscou Island Grand Étang Ingonish Beach North Mountain St.Paul Island J.A. Douglas McCurdy Sydney Airport Charlottetown Airport East Point North Cape Argentia Bonavista Burgeo Cape Race Corner Brook Daniel's Harbour Englee Ferolle Point La Scie Port aux Basques Rocky Harbour Sagona Island St. Anthony Airport St. John's Int'l Airport St. Lawrence Stephenville Airport Twillingate Winterland Wreckhouse Cartwright Airport Mary's Harbour Grates Cove Pool's Island Marticot Island Long Pond Îles de la Madeleine Airport
Legend: buoyBuoy land stationLand Station